Time,TemperatureF,DewpointF,PressureIn,WindDirection,WindDirectionDegrees,WindSpeedMPH,WindSpeedGustMPH,Humidity,HourlyPrecipIn,Conditions,Clouds,dailyrainin,SoftwareType,DateUTC
2013-09-04 00:01:00,79.8,71.9,29.89,West,260,0.0,0.0,77,0.00,,,0.00,Wunderground v.1.15,2013-09-04 04:01:00,
2013-09-04 00:02:00,79.8,71.9,29.89,West,260,0.0,0.0,77,0.00,,,0.00,Wunderground v.1.15,2013-09-04 04:02:00,
2013-09-04 00:03:00,79.8,71.9,29.89,WSW,258,0.0,0.0,77,0.00,,,0.00,Wunderground v.1.15,2013-09-04 04:03:00,
2013-09-04 00:04:00,79.8,71.9,29.89,WSW,258,0.0,0.0,77,0.00,,,0.00,Wunderground v.1.15,2013-09-04 04:04:00,
2013-09-04 00:10:00,79.6,71.8,29.89,West,260,0.0,0.0,77,0.00,,,0.00,Wunderground v.1.15,2013-09-04 04:10:00,
2013-09-04 00:14:00,79.6,71.8,29.89,WSW,258,0.0,0.0,77,0.00,,,0.00,Wunderground v.1.15,2013-09-04 04:14:00,
2013-09-04 00:17:00,79.6,72.1,29.89,WSW,258,0.0,0.0,78,0.00,,,0.00,Wunderground v.1.15,2013-09-04 04:17:00,
2013-09-04 00:23:00,79.4,71.9,29.89,West,260,0.0,0.0,78,0.00,,,0.00,Wunderground v.1.15,2013-09-04 04:23:00,
2013-09-04 00:28:00,79.4,71.9,29.89,WSW,258,0.0,0.0,78,0.00,,,0.00,Wunderground v.1.15,2013-09-04 04:28:00,
2013-09-04 00:34:00,79.2,71.7,29.89,WSW,258,0.0,0.0,78,0.00,,,0.00,Wunderground v.1.15,2013-09-04 04:34:00,
2013-09-04 00:40:00,79.2,71.7,29.89,WSW,258,0.0,0.0,78,0.00,,,0.00,Wunderground v.1.15,2013-09-04 04:40:00,
2013-09-04 00:45:00,79.2,71.7,29.89,West,260,0.0,0.0,78,0.00,,,0.00,Wunderground v.1.15,2013-09-04 04:45:00,
2013-09-04 00:51:00,79.0,71.9,29.89,WSW,258,0.0,0.0,79,0.00,,,0.00,Wunderground v.1.15,2013-09-04 04:51:00,
2013-09-04 00:57:00,79.0,71.9,29.89,WSW,258,0.0,0.0,79,0.00,,,0.00,Wunderground v.1.15,2013-09-04 04:57:00,
2013-09-04 01:02:00,78.8,71.7,29.89,WSW,258,0.0,0.0,79,0.00,,,0.00,Wunderground v.1.15,2013-09-04 05:02:00,
2013-09-04 01:08:00,78.8,71.7,29.89,WSW,258,0.0,0.0,79,0.00,,,0.00,Wunderground v.1.15,2013-09-04 05:08:00,
2013-09-04 01:14:00,78.8,71.7,29.89,WSW,258,0.0,0.0,79,0.00,,,0.00,Wunderground v.1.15,2013-09-04 05:14:00,
2013-09-04 01:19:00,78.6,71.5,29.89,West,260,0.0,0.0,79,0.00,,,0.00,Wunderground v.1.15,2013-09-04 05:19:00,
2013-09-04 01:25:00,78.6,71.9,29.89,WSW,258,0.0,0.0,80,0.00,,,0.00,Wunderground v.1.15,2013-09-04 05:25:00,
2013-09-04 01:30:00,78.5,71.8,29.89,WSW,258,0.0,0.0,80,0.00,,,0.00,Wunderground v.1.15,2013-09-04 05:30:00,
2013-09-04 01:36:00,78.5,71.8,29.89,WSW,258,0.0,0.0,80,0.00,,,0.00,Wunderground v.1.15,2013-09-04 05:36:00,
2013-09-04 01:42:00,78.3,71.6,29.89,WSW,258,0.0,0.0,80,0.00,,,0.00,Wunderground v.1.15,2013-09-04 05:42:00,
2013-09-04 01:47:00,78.3,71.6,29.88,WSW,258,0.0,0.0,80,0.00,,,0.00,Wunderground v.1.15,2013-09-04 05:47:00,
2013-09-04 01:53:00,78.3,71.6,29.88,WSW,258,0.0,0.0,80,0.00,,,0.00,Wunderground v.1.15,2013-09-04 05:53:00,
2013-09-04 01:58:00,78.1,71.4,29.88,WSW,258,0.0,0.0,80,0.00,,,0.00,Wunderground v.1.15,2013-09-04 05:58:00,
2013-09-04 02:03:00,78.1,71.4,29.87,WSW,258,0.0,0.0,80,0.00,,,0.00,Wunderground v.1.15,2013-09-04 06:03:00,
2013-09-04 02:08:00,78.1,71.8,29.87,WSW,258,0.0,0.0,81,0.00,,,0.00,Wunderground v.1.15,2013-09-04 06:08:00,
2013-09-04 02:13:00,78.1,71.8,29.87,WSW,258,0.0,0.0,81,0.00,,,0.00,Wunderground v.1.15,2013-09-04 06:13:00,
2013-09-04 02:18:00,78.1,71.8,29.87,WSW,258,0.0,0.0,81,0.00,,,0.00,Wunderground v.1.15,2013-09-04 06:18:00,
2013-09-04 02:23:00,78.1,72.2,29.87,WSW,258,0.0,0.0,82,0.00,,,0.00,Wunderground v.1.15,2013-09-04 06:23:00,
2013-09-04 02:28:00,78.1,71.8,29.87,WSW,258,0.0,0.0,81,0.00,,,0.00,Wunderground v.1.15,2013-09-04 06:28:00,
2013-09-04 02:33:00,78.1,71.8,29.87,WSW,258,0.0,0.0,81,0.00,,,0.00,Wunderground v.1.15,2013-09-04 06:33:00,
2013-09-04 02:38:00,77.9,72.0,29.87,WSW,258,0.0,0.0,82,0.00,,,0.00,Wunderground v.1.15,2013-09-04 06:38:00,
2013-09-04 02:43:00,77.9,72.0,29.87,WSW,258,0.0,0.0,82,0.00,,,0.00,Wunderground v.1.15,2013-09-04 06:43:00,
2013-09-04 02:49:00,77.9,72.0,29.87,WSW,258,0.0,0.0,82,0.00,,,0.00,Wunderground v.1.15,2013-09-04 06:49:00,
2013-09-04 02:54:00,77.9,72.0,29.87,West,260,0.0,0.0,82,0.00,,,0.00,Wunderground v.1.15,2013-09-04 06:54:00,
2013-09-04 02:59:00,77.7,71.8,29.87,WSW,258,0.0,0.0,82,0.00,,,0.00,Wunderground v.1.15,2013-09-04 06:59:00,
2013-09-04 03:04:00,77.7,71.8,29.87,WSW,258,0.0,0.0,82,0.00,,,0.00,Wunderground v.1.15,2013-09-04 07:04:00,
2013-09-04 03:09:00,77.7,71.8,29.87,WSW,258,0.0,0.0,82,0.00,,,0.00,Wunderground v.1.15,2013-09-04 07:09:00,
2013-09-04 03:14:00,77.7,71.8,29.87,WSW,258,0.0,0.0,82,0.00,,,0.00,Wunderground v.1.15,2013-09-04 07:14:00,
2013-09-04 03:19:00,77.6,71.7,29.86,WSW,258,0.0,0.0,82,0.00,,,0.00,Wunderground v.1.15,2013-09-04 07:19:00,
2013-09-04 03:24:00,77.6,71.7,29.86,WSW,258,0.0,0.0,82,0.00,,,0.00,Wunderground v.1.15,2013-09-04 07:24:00,
2013-09-04 03:29:00,77.4,71.5,29.86,WSW,258,0.0,0.0,82,0.00,,,0.00,Wunderground v.1.15,2013-09-04 07:29:00,
2013-09-04 03:34:00,77.4,71.5,29.86,WSW,258,0.0,0.0,82,0.00,,,0.00,Wunderground v.1.15,2013-09-04 07:34:00,
2013-09-04 03:39:00,77.2,71.6,29.86,WSW,258,0.0,0.0,83,0.00,,,0.00,Wunderground v.1.15,2013-09-04 07:39:00,
2013-09-04 03:44:00,77.2,71.6,29.86,West,260,0.0,0.0,83,0.00,,,0.00,Wunderground v.1.15,2013-09-04 07:44:00,
2013-09-04 03:49:00,77.2,71.6,29.86,West,260,0.0,0.0,83,0.00,,,0.00,Wunderground v.1.15,2013-09-04 07:49:00,
2013-09-04 03:54:00,77.0,71.4,29.86,WSW,258,0.0,0.0,83,0.00,,,0.00,Wunderground v.1.15,2013-09-04 07:54:00,
2013-09-04 03:59:00,77.0,71.4,29.86,WSW,258,0.0,0.0,83,0.00,,,0.00,Wunderground v.1.15,2013-09-04 07:59:00,
2013-09-04 04:04:00,77.0,71.4,29.86,WSW,258,0.0,0.0,83,0.00,,,0.00,Wunderground v.1.15,2013-09-04 08:04:00,
2013-09-04 04:09:00,76.8,71.2,29.86,West,260,0.0,0.0,83,0.00,,,0.00,Wunderground v.1.15,2013-09-04 08:09:00,
2013-09-04 04:14:00,76.8,71.2,29.86,WSW,258,0.0,0.0,83,0.00,,,0.00,Wunderground v.1.15,2013-09-04 08:14:00,
2013-09-04 04:19:00,76.8,71.2,29.86,WSW,258,0.0,0.0,83,0.00,,,0.00,Wunderground v.1.15,2013-09-04 08:19:00,
2013-09-04 04:24:00,76.8,71.6,29.86,WSW,258,0.0,0.0,84,0.00,,,0.00,Wunderground v.1.15,2013-09-04 08:24:00,
2013-09-04 04:29:00,76.8,71.6,29.86,WSW,258,0.0,0.0,84,0.00,,,0.00,Wunderground v.1.15,2013-09-04 08:29:00,
2013-09-04 04:34:00,76.7,71.5,29.86,WSW,258,0.0,0.0,84,0.00,,,0.00,Wunderground v.1.15,2013-09-04 08:34:00,
2013-09-04 04:39:00,76.7,71.5,29.86,WSW,258,0.0,0.0,84,0.00,,,0.00,Wunderground v.1.15,2013-09-04 08:39:00,
2013-09-04 04:44:00,76.7,71.5,29.86,WSW,258,0.0,0.0,84,0.00,,,0.00,Wunderground v.1.15,2013-09-04 08:44:00,
2013-09-04 04:49:00,76.7,71.5,29.86,WSW,258,0.0,0.0,84,0.00,,,0.00,Wunderground v.1.15,2013-09-04 08:49:00,
2013-09-04 04:54:00,76.7,71.5,29.86,WSW,258,0.0,0.0,84,0.00,,,0.00,Wunderground v.1.15,2013-09-04 08:54:00,
2013-09-04 04:59:00,76.8,71.6,29.86,WSW,258,0.0,0.0,84,0.00,,,0.00,Wunderground v.1.15,2013-09-04 08:59:00,
2013-09-04 05:04:00,76.7,71.5,29.86,WSW,258,0.0,0.0,84,0.00,,,0.00,Wunderground v.1.15,2013-09-04 09:04:00,
2013-09-04 05:09:00,76.7,71.5,29.86,WSW,258,0.0,0.0,84,0.00,,,0.00,Wunderground v.1.15,2013-09-04 09:09:00,
2013-09-04 05:14:00,76.5,71.3,29.86,WSW,258,0.0,0.0,84,0.00,,,0.00,Wunderground v.1.15,2013-09-04 09:14:00,
2013-09-04 05:20:00,76.5,71.3,29.87,WSW,258,0.0,0.0,84,0.00,,,0.00,Wunderground v.1.15,2013-09-04 09:20:00,
2013-09-04 05:25:00,76.5,71.3,29.87,WSW,258,0.0,0.0,84,0.00,,,0.00,Wunderground v.1.15,2013-09-04 09:25:00,
2013-09-04 05:30:00,76.5,71.7,29.87,WSW,258,0.0,0.0,85,0.00,,,0.00,Wunderground v.1.15,2013-09-04 09:30:00,
2013-09-04 05:35:00,76.5,71.7,29.87,WSW,258,0.0,0.0,85,0.00,,,0.00,Wunderground v.1.15,2013-09-04 09:35:00,
2013-09-04 05:40:00,76.5,71.7,29.87,WSW,258,0.0,0.0,85,0.00,,,0.00,Wunderground v.1.15,2013-09-04 09:40:00,
2013-09-04 05:45:00,76.5,71.7,29.87,WSW,258,0.0,0.0,85,0.00,,,0.00,Wunderground v.1.15,2013-09-04 09:45:00,
2013-09-04 05:50:00,76.3,71.5,29.87,WSW,258,0.0,0.0,85,0.00,,,0.00,Wunderground v.1.15,2013-09-04 09:50:00,
2013-09-04 05:55:00,76.3,71.5,29.87,WSW,258,0.0,0.0,85,0.00,,,0.00,Wunderground v.1.15,2013-09-04 09:55:00,
2013-09-04 06:00:00,76.3,71.5,29.87,WSW,258,0.0,0.0,85,0.00,,,0.00,Wunderground v.1.15,2013-09-04 10:00:00,
2013-09-04 06:05:00,76.1,71.3,29.87,WSW,258,0.0,0.0,85,0.00,,,0.00,Wunderground v.1.15,2013-09-04 10:05:00,
2013-09-04 06:10:00,76.1,71.3,29.87,WSW,258,0.0,0.0,85,0.00,,,0.00,Wunderground v.1.15,2013-09-04 10:10:00,
2013-09-04 06:15:00,76.1,71.3,29.87,WSW,258,0.0,0.0,85,0.00,,,0.00,Wunderground v.1.15,2013-09-04 10:15:00,
2013-09-04 06:20:00,76.1,71.6,29.88,WSW,258,0.0,0.0,86,0.00,,,0.00,Wunderground v.1.15,2013-09-04 10:20:00,
2013-09-04 06:25:00,76.3,71.8,29.88,WSW,258,0.0,0.0,86,0.00,,,0.00,Wunderground v.1.15,2013-09-04 10:25:00,
2013-09-04 06:30:00,76.5,72.3,29.88,WSW,258,0.0,0.0,87,0.00,,,0.00,Wunderground v.1.15,2013-09-04 10:30:00,
2013-09-04 06:35:00,76.8,72.6,29.88,WSW,258,0.0,0.0,87,0.00,,,0.00,Wunderground v.1.15,2013-09-04 10:35:00,
2013-09-04 06:40:00,77.0,72.8,29.88,WSW,258,0.0,0.0,87,0.00,,,0.00,Wunderground v.1.15,2013-09-04 10:40:00,
2013-09-04 06:45:00,77.0,72.8,29.88,WSW,258,0.0,0.0,87,0.00,,,0.00,Wunderground v.1.15,2013-09-04 10:45:00,
2013-09-04 06:50:00,77.0,72.8,29.89,WSW,258,0.0,0.0,87,0.00,,,0.00,Wunderground v.1.15,2013-09-04 10:50:00,
2013-09-04 06:55:00,77.0,72.8,29.89,WSW,258,0.0,0.0,87,0.00,,,0.00,Wunderground v.1.15,2013-09-04 10:55:00,
2013-09-04 07:00:00,77.0,72.8,29.89,WSW,258,0.0,0.0,87,0.00,,,0.00,Wunderground v.1.15,2013-09-04 11:00:00,
2013-09-04 07:05:00,77.0,72.8,29.89,WSW,258,0.0,0.0,87,0.00,,,0.00,Wunderground v.1.15,2013-09-04 11:05:00,
2013-09-04 07:10:00,77.0,72.8,29.89,WSW,258,0.0,0.0,87,0.00,,,0.00,Wunderground v.1.15,2013-09-04 11:10:00,
2013-09-04 07:15:00,77.0,72.8,29.89,WSW,258,0.0,0.0,87,0.00,,,0.00,Wunderground v.1.15,2013-09-04 11:15:00,
2013-09-04 07:20:00,77.2,73.0,29.90,WSW,258,0.0,0.0,87,0.00,,,0.00,Wunderground v.1.15,2013-09-04 11:20:00,
2013-09-04 07:25:00,77.2,73.0,29.90,WSW,258,0.0,0.0,87,0.00,,,0.00,Wunderground v.1.15,2013-09-04 11:25:00,
2013-09-04 07:30:00,77.2,73.0,29.90,WSW,258,0.0,0.0,87,0.00,,,0.00,Wunderground v.1.15,2013-09-04 11:30:00,
2013-09-04 07:35:00,77.2,73.0,29.90,WSW,241,0.0,1.0,87,0.00,,,0.00,Wunderground v.1.15,2013-09-04 11:35:00,
2013-09-04 07:40:00,77.4,73.6,29.90,East,92,0.0,0.0,88,0.00,,,0.00,Wunderground v.1.15,2013-09-04 11:40:00,
2013-09-04 07:45:00,77.4,73.2,29.91,East,92,0.0,0.0,87,0.00,,,0.00,Wunderground v.1.15,2013-09-04 11:45:00,
2013-09-04 07:51:00,77.4,73.2,29.91,East,92,0.0,0.0,87,0.00,,,0.00,Wunderground v.1.15,2013-09-04 11:51:00,
2013-09-04 07:56:00,77.6,73.8,29.91,East,92,0.0,0.0,88,0.00,,,0.00,Wunderground v.1.15,2013-09-04 11:56:00,
2013-09-04 08:01:00,77.6,73.8,29.91,East,92,0.0,0.0,88,0.00,,,0.00,Wunderground v.1.15,2013-09-04 12:01:00,
2013-09-04 08:06:00,77.7,73.9,29.91,East,92,0.0,0.0,88,0.00,,,0.00,Wunderground v.1.15,2013-09-04 12:06:00,
2013-09-04 08:11:00,77.7,73.9,29.91,East,90,0.0,0.0,88,0.00,,,0.00,Wunderground v.1.15,2013-09-04 12:11:00,
2013-09-04 08:16:00,77.9,74.1,29.92,East,92,0.0,0.0,88,0.00,,,0.00,Wunderground v.1.15,2013-09-04 12:16:00,
2013-09-04 08:21:00,77.9,74.1,29.92,East,92,0.0,0.0,88,0.00,,,0.00,Wunderground v.1.15,2013-09-04 12:21:00,
2013-09-04 08:26:00,78.1,74.3,29.92,East,92,0.0,0.0,88,0.00,,,0.00,Wunderground v.1.15,2013-09-04 12:26:00,
2013-09-04 08:31:00,78.1,74.3,29.92,East,92,0.0,0.0,88,0.00,,,0.00,Wunderground v.1.15,2013-09-04 12:31:00,
2013-09-04 08:36:00,78.3,74.5,29.92,East,92,0.0,0.0,88,0.00,,,0.00,Wunderground v.1.15,2013-09-04 12:36:00,
2013-09-04 08:41:00,78.5,74.3,29.92,East,92,0.0,0.0,87,0.00,,,0.00,Wunderground v.1.15,2013-09-04 12:41:00,
2013-09-04 08:46:00,78.6,74.4,29.92,East,92,0.0,0.0,87,0.00,,,0.00,Wunderground v.1.15,2013-09-04 12:46:00,
2013-09-04 08:51:00,78.6,74.4,29.92,East,92,0.0,0.0,87,0.00,,,0.00,Wunderground v.1.15,2013-09-04 12:51:00,
2013-09-04 08:56:00,78.8,74.6,29.92,East,82,0.0,1.0,87,0.00,,,0.00,Wunderground v.1.15,2013-09-04 12:56:00,
2013-09-04 09:01:00,79.0,74.8,29.93,East,82,0.0,0.0,87,0.00,,,0.00,Wunderground v.1.15,2013-09-04 13:01:00,
2013-09-04 09:06:00,79.0,74.8,29.93,East,82,0.0,0.0,87,0.00,,,0.00,Wunderground v.1.15,2013-09-04 13:06:00,
2013-09-04 09:11:00,79.2,75.0,29.93,East,83,0.0,0.0,87,0.00,,,0.00,Wunderground v.1.15,2013-09-04 13:11:00,
2013-09-04 09:16:00,79.4,75.2,29.93,East,83,0.0,3.0,87,0.00,,,0.00,Wunderground v.1.15,2013-09-04 13:16:00,
2013-09-04 09:21:00,79.8,75.6,29.93,East,83,0.0,3.0,87,0.00,,,0.00,Wunderground v.1.15,2013-09-04 13:21:00,
2013-09-04 09:26:00,80.1,75.9,29.93,East,83,0.0,3.0,87,0.00,,,0.00,Wunderground v.1.15,2013-09-04 13:26:00,
2013-09-04 09:31:00,80.3,75.7,29.93,East,83,0.0,2.0,86,0.00,,,0.00,Wunderground v.1.15,2013-09-04 13:31:00,
2013-09-04 09:36:00,80.7,76.5,29.93,East,83,3.0,6.0,87,0.00,,,0.00,Wunderground v.1.15,2013-09-04 13:36:00,
2013-09-04 09:41:00,80.9,76.3,29.93,East,97,1.0,6.0,86,0.00,,,0.00,Wunderground v.1.15,2013-09-04 13:41:00,
2013-09-04 09:46:00,81.2,76.3,29.94,East,86,3.0,6.0,85,0.00,,,0.00,Wunderground v.1.15,2013-09-04 13:46:00,
2013-09-04 09:51:00,81.8,76.8,29.94,East,88,0.0,5.0,85,0.00,,,0.00,Wunderground v.1.15,2013-09-04 13:51:00,
2013-09-04 09:56:00,82.4,77.4,29.94,ENE,68,3.0,5.0,85,0.00,,,0.00,Wunderground v.1.15,2013-09-04 13:56:00,
2013-09-04 10:01:00,83.0,77.7,29.94,ENE,76,5.0,6.0,84,0.00,,,0.00,Wunderground v.1.15,2013-09-04 14:01:00,
2013-09-04 10:06:00,83.6,77.9,29.94,East,96,0.0,8.0,83,0.00,,,0.00,Wunderground v.1.15,2013-09-04 14:06:00,
2013-09-04 10:11:00,84.0,77.9,29.94,ESE,104,0.0,3.0,82,0.00,,,0.00,Wunderground v.1.15,2013-09-04 14:11:00,
2013-09-04 10:16:00,84.5,78.4,29.95,SSW,193,3.0,3.0,82,0.00,,,0.00,Wunderground v.1.15,2013-09-04 14:16:00,
2013-09-04 10:21:00,84.9,78.0,29.95,ESE,112,0.0,5.0,80,0.00,,,0.00,Wunderground v.1.15,2013-09-04 14:21:00,
2013-09-04 10:26:00,85.5,78.2,29.95,East,85,2.0,7.0,79,0.00,,,0.00,Wunderground v.1.15,2013-09-04 14:26:00,
2013-09-04 10:31:00,85.9,78.6,29.95,SE,136,0.0,2.0,79,0.00,,,0.00,Wunderground v.1.15,2013-09-04 14:31:00,
2013-09-04 10:36:00,86.3,78.2,29.95,East,92,2.0,7.0,77,0.00,,,0.00,Wunderground v.1.15,2013-09-04 14:36:00,
2013-09-04 10:41:00,86.7,78.6,29.95,ESE,104,0.0,1.0,77,0.00,,,0.00,Wunderground v.1.15,2013-09-04 14:41:00,
2013-09-04 10:46:00,87.2,78.7,29.95,ESE,116,0.0,5.0,76,0.00,,,0.00,Wunderground v.1.15,2013-09-04 14:46:00,
2013-09-04 10:51:00,87.6,78.7,29.95,North,0,0.0,3.0,75,0.00,,,0.00,Wunderground v.1.15,2013-09-04 14:51:00,
2013-09-04 10:56:00,88.0,78.7,29.95,SE,144,0.0,6.0,74,0.00,,,0.00,Wunderground v.1.15,2013-09-04 14:56:00,
2013-09-04 11:01:00,88.4,78.6,29.95,SE,136,0.0,2.0,73,0.00,,,0.00,Wunderground v.1.15,2013-09-04 15:01:00,
2013-09-04 11:06:00,88.8,78.6,29.95,East,99,0.0,2.0,72,0.00,,,0.00,Wunderground v.1.15,2013-09-04 15:06:00,
2013-09-04 11:11:00,89.0,78.8,29.95,SE,145,0.0,6.0,72,0.00,,,0.00,Wunderground v.1.15,2013-09-04 15:11:00,
2013-09-04 11:16:00,89.3,78.7,29.95,ENE,71,2.0,6.0,71,0.00,,,0.00,Wunderground v.1.15,2013-09-04 15:16:00,
2013-09-04 11:21:00,89.3,78.2,29.95,North,0,2.0,6.0,70,0.00,,,0.00,Wunderground v.1.15,2013-09-04 15:21:00,
2013-09-04 11:26:00,89.7,78.6,29.95,ESE,103,0.0,6.0,70,0.00,,,0.00,Wunderground v.1.15,2013-09-04 15:26:00,
2013-09-04 11:31:00,89.9,78.4,29.95,East,90,0.0,1.0,69,0.00,,,0.00,Wunderground v.1.15,2013-09-04 15:31:00,
2013-09-04 11:36:00,89.9,77.9,29.95,SE,145,2.0,6.0,68,0.00,,,0.00,Wunderground v.1.15,2013-09-04 15:36:00,
2013-09-04 11:42:00,90.1,77.7,29.95,East,92,0.0,5.0,67,0.00,,,0.00,Wunderground v.1.15,2013-09-04 15:42:00,
2013-09-04 11:47:00,90.1,77.7,29.95,ESE,106,0.0,5.0,67,0.00,,,0.00,Wunderground v.1.15,2013-09-04 15:47:00,
2013-09-04 11:52:00,90.1,77.2,29.95,NW,325,3.0,3.0,66,0.00,,,0.00,Wunderground v.1.15,2013-09-04 15:52:00,
2013-09-04 11:57:00,90.3,77.4,29.95,East,83,0.0,4.0,66,0.00,,,0.00,Wunderground v.1.15,2013-09-04 15:57:00,
2013-09-04 12:02:00,90.1,76.7,29.95,East,95,0.0,2.0,65,0.00,,,0.00,Wunderground v.1.15,2013-09-04 16:02:00,
2013-09-04 12:07:00,89.9,76.6,29.95,East,92,0.0,2.0,65,0.00,,,0.00,Wunderground v.1.15,2013-09-04 16:07:00,
2013-09-04 12:12:00,89.7,76.4,29.95,East,90,3.0,3.0,65,0.00,,,0.00,Wunderground v.1.15,2013-09-04 16:12:00,
2013-09-04 12:17:00,89.9,76.6,29.95,ESE,107,0.0,5.0,65,0.00,,,0.00,Wunderground v.1.15,2013-09-04 16:17:00,
2013-09-04 12:22:00,90.3,76.5,29.95,East,85,0.0,1.0,64,0.00,,,0.00,Wunderground v.1.15,2013-09-04 16:22:00,
2013-09-04 12:27:00,91.0,77.1,29.95,ENE,78,0.0,1.0,64,0.00,,,0.00,Wunderground v.1.15,2013-09-04 16:27:00,
2013-09-04 12:32:00,91.4,77.0,29.95,NNE,18,0.0,0.0,63,0.00,,,0.00,Wunderground v.1.15,2013-09-04 16:32:00,
2013-09-04 12:37:00,91.6,76.2,29.95,East,90,0.0,0.0,61,0.00,,,0.00,Wunderground v.1.15,2013-09-04 16:37:00,
2013-09-04 12:42:00,91.8,76.4,29.95,North,0,0.0,0.0,61,0.00,,,0.00,Wunderground v.1.15,2013-09-04 16:42:00,
2013-09-04 12:47:00,92.5,76.6,29.95,East,100,0.0,5.0,60,0.00,,,0.00,Wunderground v.1.15,2013-09-04 16:47:00,
2013-09-04 12:52:00,92.9,77.0,29.95,East,99,0.0,0.0,60,0.00,,,0.00,Wunderground v.1.15,2013-09-04 16:52:00,
2013-09-04 12:57:00,93.4,76.9,29.95,East,99,0.0,0.0,59,0.00,,,0.00,Wunderground v.1.15,2013-09-04 16:57:00,
2013-09-04 13:02:00,93.6,76.6,29.94,ENE,69,0.0,1.0,58,0.00,,,0.00,Wunderground v.1.15,2013-09-04 17:02:00,
2013-09-04 13:07:00,93.6,76.1,29.94,East,80,0.0,1.0,57,0.00,,,0.00,Wunderground v.1.15,2013-09-04 17:07:00,
2013-09-04 13:12:00,93.6,75.5,29.94,ESE,119,0.0,8.0,56,0.00,,,0.00,Wunderground v.1.15,2013-09-04 17:12:00,
2013-09-04 13:17:00,93.4,74.8,29.93,SSE,158,0.0,8.0,55,0.00,,,0.00,Wunderground v.1.15,2013-09-04 17:17:00,
2013-09-04 13:22:00,93.4,74.8,29.93,SSE,150,0.0,4.0,55,0.00,,,0.00,Wunderground v.1.15,2013-09-04 17:22:00,
2013-09-04 13:27:00,93.4,74.8,29.93,SE,136,6.0,8.0,55,0.00,,,0.00,Wunderground v.1.15,2013-09-04 17:27:00,
2013-09-04 13:32:00,93.6,75.0,29.93,SE,137,0.0,5.0,55,0.00,,,0.00,Wunderground v.1.15,2013-09-04 17:32:00,
2013-09-04 13:37:00,93.8,74.1,29.93,SSW,200,2.0,7.0,53,0.00,,,0.00,Wunderground v.1.15,2013-09-04 17:37:00,
2013-09-04 13:42:00,94.0,74.3,29.93,SE,136,2.0,5.0,53,0.00,,,0.00,Wunderground v.1.15,2013-09-04 17:42:00,
2013-09-04 13:47:00,94.5,74.7,29.92,SSE,168,3.0,7.0,53,0.00,,,0.00,Wunderground v.1.15,2013-09-04 17:47:00,
2013-09-04 13:52:00,94.7,74.3,29.92,SSE,165,0.0,7.0,52,0.00,,,0.00,Wunderground v.1.15,2013-09-04 17:52:00,
2013-09-04 13:57:00,95.1,74.7,29.92,SSW,208,0.0,7.0,52,0.00,,,0.00,Wunderground v.1.15,2013-09-04 17:57:00,
2013-09-04 14:02:00,95.4,74.4,29.92,SE,124,0.0,4.0,51,0.00,,,0.00,Wunderground v.1.15,2013-09-04 18:02:00,
2013-09-04 14:07:00,95.4,73.8,29.92,East,95,0.0,4.0,50,0.00,,,0.00,Wunderground v.1.15,2013-09-04 18:07:00,
2013-09-04 14:12:00,95.4,73.2,29.92,North,353,0.0,0.0,49,0.00,,,0.00,Wunderground v.1.15,2013-09-04 18:12:00,
2013-09-04 14:17:00,95.6,72.8,29.92,SSE,158,0.0,0.0,48,0.00,,,0.00,Wunderground v.1.15,2013-09-04 18:17:00,
2013-09-04 14:22:00,95.9,73.7,29.92,SW,233,0.0,0.0,49,0.00,,,0.00,Wunderground v.1.15,2013-09-04 18:22:00,
2013-09-04 14:27:00,96.3,74.0,29.92,SW,233,0.0,0.0,49,0.00,,,0.00,Wunderground v.1.15,2013-09-04 18:27:00,
2013-09-04 14:32:00,96.8,75.1,29.92,WNW,288,0.0,1.0,50,0.00,,,0.00,Wunderground v.1.15,2013-09-04 18:32:00,
2013-09-04 14:37:00,96.8,75.7,29.92,WNW,301,0.0,1.0,51,0.00,,,0.00,Wunderground v.1.15,2013-09-04 18:37:00,
2013-09-04 14:42:00,96.3,75.2,29.92,West,281,0.0,0.0,51,0.00,,,0.00,Wunderground v.1.15,2013-09-04 18:42:00,
2013-09-04 14:47:00,95.9,74.9,29.91,WNW,291,0.0,1.0,51,0.00,,,0.00,Wunderground v.1.15,2013-09-04 18:47:00,
2013-09-04 14:52:00,95.4,75.0,29.91,North,349,0.0,7.0,52,0.00,,,0.00,Wunderground v.1.15,2013-09-04 18:52:00,
2013-09-04 14:57:00,95.1,75.3,29.91,WNW,298,0.0,7.0,53,0.00,,,0.00,Wunderground v.1.15,2013-09-04 18:57:00,
2013-09-04 15:02:00,94.9,75.1,29.91,NW,315,0.0,3.0,53,0.00,,,0.00,Wunderground v.1.15,2013-09-04 19:02:00,
2013-09-04 15:07:00,94.5,75.3,29.91,West,278,3.0,6.0,54,0.00,,,0.00,Wunderground v.1.15,2013-09-04 19:07:00,
2013-09-04 15:12:00,94.0,74.8,29.91,West,275,2.0,5.0,54,0.00,,,0.00,Wunderground v.1.15,2013-09-04 19:12:00,
2013-09-04 15:17:00,93.8,75.2,29.91,West,275,4.0,6.0,55,0.00,,,0.00,Wunderground v.1.15,2013-09-04 19:17:00,
2013-09-04 15:22:00,93.6,75.5,29.91,North,354,0.0,5.0,56,0.00,,,0.00,Wunderground v.1.15,2013-09-04 19:22:00,
2013-09-04 15:28:00,93.6,75.5,29.91,WSW,250,0.0,5.0,56,0.00,,,0.00,Wunderground v.1.15,2013-09-04 19:28:00,
2013-09-04 15:33:00,93.6,75.5,29.91,NNW,346,5.0,6.0,56,0.00,,,0.00,Wunderground v.1.15,2013-09-04 19:33:00,
2013-09-04 15:38:00,93.2,75.7,29.91,WNW,295,0.0,7.0,57,0.00,,,0.00,Wunderground v.1.15,2013-09-04 19:38:00,
2013-09-04 15:43:00,92.5,74.5,29.91,North,349,0.0,5.0,56,0.00,,,0.00,Wunderground v.1.15,2013-09-04 19:43:00,
2013-09-04 15:48:00,91.6,73.7,29.91,North,0,0.0,5.0,56,0.00,,,0.00,Wunderground v.1.15,2013-09-04 19:48:00,
2013-09-04 15:53:00,91.4,73.5,29.91,North,353,0.0,7.0,56,0.00,,,0.00,Wunderground v.1.15,2013-09-04 19:53:00,
2013-09-04 15:58:00,91.2,72.8,29.91,North,7,0.0,8.0,55,0.00,,,0.00,Wunderground v.1.15,2013-09-04 19:58:00,
2013-09-04 16:03:00,91.0,72.6,29.91,North,0,0.0,6.0,55,0.00,,,0.00,Wunderground v.1.15,2013-09-04 20:03:00,
2013-09-04 16:08:00,91.0,73.1,29.91,North,357,0.0,8.0,56,0.00,,,0.00,Wunderground v.1.15,2013-09-04 20:08:00,
2013-09-04 16:13:00,91.2,75.4,29.91,North,349,6.0,11.0,60,0.00,,,0.00,Wunderground v.1.15,2013-09-04 20:13:00,
2013-09-04 16:18:00,90.5,75.2,29.91,North,0,0.0,11.0,61,0.00,,,0.00,Wunderground v.1.15,2013-09-04 20:18:00,
2013-09-04 16:23:00,90.1,75.3,29.91,NNE,16,0.0,1.0,62,0.00,,,0.00,Wunderground v.1.15,2013-09-04 20:23:00,
2013-09-04 16:28:00,89.7,74.9,29.91,NW,319,0.0,1.0,62,0.00,,,0.00,Wunderground v.1.15,2013-09-04 20:28:00,
2013-09-04 16:33:00,89.7,74.9,29.90,NNW,330,0.0,0.0,62,0.00,,,0.00,Wunderground v.1.15,2013-09-04 20:33:00,
2013-09-04 16:38:00,89.3,75.0,29.90,North,7,0.0,0.0,63,0.00,,,0.00,Wunderground v.1.15,2013-09-04 20:38:00,
2013-09-04 16:43:00,89.0,74.8,29.90,North,1,0.0,0.0,63,0.00,,,0.00,Wunderground v.1.15,2013-09-04 20:43:00,
2013-09-04 16:48:00,88.8,74.6,29.91,North,0,0.0,1.0,63,0.00,,,0.00,Wunderground v.1.15,2013-09-04 20:48:00,
2013-09-04 16:53:00,88.4,74.2,29.91,North,0,0.0,0.0,63,0.00,,,0.00,Wunderground v.1.15,2013-09-04 20:53:00,
2013-09-04 16:58:00,88.0,73.8,29.91,North,0,0.0,3.0,63,0.00,,,0.00,Wunderground v.1.15,2013-09-04 20:58:00,
2013-09-04 17:03:00,87.4,72.8,29.91,North,0,0.0,0.0,62,0.00,,,0.00,Wunderground v.1.15,2013-09-04 21:03:00,
2013-09-04 17:08:00,87.0,72.9,29.91,North,0,0.0,0.0,63,0.00,,,0.00,Wunderground v.1.15,2013-09-04 21:08:00,
2013-09-04 17:13:00,87.0,73.3,29.91,North,0,0.0,0.0,64,0.00,,,0.00,Wunderground v.1.15,2013-09-04 21:13:00,
2013-09-04 17:18:00,86.7,73.1,29.92,North,0,0.0,0.0,64,0.00,,,0.00,Wunderground v.1.15,2013-09-04 21:18:00,
2013-09-04 17:23:00,86.7,73.5,29.92,North,0,0.0,0.0,65,0.00,,,0.00,Wunderground v.1.15,2013-09-04 21:23:00,
2013-09-04 17:28:00,86.7,72.6,29.92,North,10,0.0,0.0,63,0.00,,,0.00,Wunderground v.1.15,2013-09-04 21:28:00,
2013-09-04 17:33:00,86.5,72.9,29.91,North,0,3.0,3.0,64,0.00,,,0.00,Wunderground v.1.15,2013-09-04 21:33:00,
2013-09-04 17:38:00,86.3,72.7,29.91,North,11,0.0,6.0,64,0.00,,,0.00,Wunderground v.1.15,2013-09-04 21:38:00,
2013-09-04 17:43:00,86.3,73.1,29.91,North,0,0.0,1.0,65,0.00,,,0.00,Wunderground v.1.15,2013-09-04 21:43:00,
2013-09-04 17:48:00,86.1,72.5,29.90,North,0,0.0,1.0,64,0.00,,,0.00,Wunderground v.1.15,2013-09-04 21:48:00,
2013-09-04 17:53:00,86.1,73.0,29.90,North,352,0.0,6.0,65,0.00,,,0.00,Wunderground v.1.15,2013-09-04 21:53:00,
2013-09-04 17:58:00,86.1,73.4,29.90,North,354,3.0,7.0,66,0.00,,,0.00,Wunderground v.1.15,2013-09-04 21:58:00,
2013-09-04 18:03:00,85.9,73.7,29.91,North,350,0.0,8.0,67,0.00,,,0.00,Wunderground v.1.15,2013-09-04 22:03:00,
2013-09-04 18:08:00,85.5,73.3,29.91,ENE,59,0.0,8.0,67,0.00,,,0.00,Wunderground v.1.15,2013-09-04 22:08:00,
2013-09-04 18:13:00,85.1,72.5,29.91,ESE,119,6.0,16.0,66,0.00,,,0.00,Wunderground v.1.15,2013-09-04 22:13:00,
2013-09-04 18:18:00,83.8,70.8,29.95,SE,138,10.0,16.0,65,0.00,,,0.00,Wunderground v.1.15,2013-09-04 22:18:00,
2013-09-04 18:23:00,81.8,69.3,29.95,SSE,158,0.0,11.0,66,0.00,,,0.00,Wunderground v.1.15,2013-09-04 22:23:00,
2013-09-04 18:28:00,80.3,68.3,29.95,East,97,5.0,11.0,67,0.00,,,0.00,Wunderground v.1.15,2013-09-04 22:28:00,
2013-09-04 18:33:00,79.2,67.7,29.94,East,99,1.0,6.0,68,0.00,,,0.00,Wunderground v.1.15,2013-09-04 22:33:00,
2013-09-04 18:39:00,78.5,67.5,29.94,WSW,248,0.0,6.0,69,0.00,,,0.00,Wunderground v.1.15,2013-09-04 22:39:00,
2013-09-04 18:44:00,78.1,67.5,29.94,ENE,69,0.0,7.0,70,0.00,,,0.00,Wunderground v.1.15,2013-09-04 22:44:00,
2013-09-04 18:49:00,77.9,68.1,29.94,East,83,0.0,7.0,72,0.47,,,0.08,Wunderground v.1.15,2013-09-04 22:49:00,
2013-09-04 18:54:00,77.7,68.7,29.94,NE,38,0.0,2.0,74,0.78,,,0.11,Wunderground v.1.15,2013-09-04 22:54:00,
2013-09-04 18:59:00,77.7,69.1,29.94,NNE,18,1.0,2.0,75,2.77,,,0.24,Wunderground v.1.15,2013-09-04 22:59:00,
2013-09-04 19:04:00,77.6,69.0,29.94,NNW,340,0.0,3.0,75,0.49,,,0.33,Wunderground v.1.15,2013-09-04 23:04:00,
2013-09-04 19:09:00,77.2,69.0,29.94,North,0,0.0,3.0,76,1.32,,,0.43,Wunderground v.1.15,2013-09-04 23:09:00,
2013-09-04 19:14:00,76.7,68.6,29.94,North,0,0.0,0.0,76,0.40,,,0.48,Wunderground v.1.15,2013-09-04 23:14:00,
2013-09-04 19:19:00,76.3,68.6,29.94,NE,48,0.0,2.0,77,0.21,,,0.50,Wunderground v.1.15,2013-09-04 23:19:00,
2013-09-04 19:24:00,75.8,68.1,29.94,NE,35,0.0,2.0,77,0.11,,,0.50,Wunderground v.1.15,2013-09-04 23:24:00,
2013-09-04 19:29:00,75.4,68.1,29.94,NE,35,0.0,2.0,78,0.06,,,0.51,Wunderground v.1.15,2013-09-04 23:29:00,
2013-09-04 19:34:00,75.3,68.0,29.94,NE,35,0.0,0.0,78,0.06,,,0.51,Wunderground v.1.15,2013-09-04 23:34:00,
2013-09-04 19:39:00,74.9,67.9,29.94,NE,35,0.0,0.0,79,0.05,,,0.51,Wunderground v.1.15,2013-09-04 23:39:00,
2013-09-04 19:44:00,74.7,68.1,29.94,SSE,150,0.0,1.0,80,0.04,,,0.51,Wunderground v.1.15,2013-09-04 23:44:00,
2013-09-04 19:49:00,74.6,68.0,29.93,SSE,150,0.0,1.0,80,0.00,,,0.51,Wunderground v.1.15,2013-09-04 23:49:00,
2013-09-04 19:54:00,74.7,68.5,29.93,SSE,150,0.0,0.0,81,0.00,,,0.51,Wunderground v.1.15,2013-09-04 23:54:00,
2013-09-04 19:59:00,74.9,68.7,29.93,SSE,148,0.0,0.0,81,0.00,,,0.51,Wunderground v.1.15,2013-09-04 23:59:00,
2013-09-04 20:04:00,75.1,69.2,29.96,ENE,73,0.0,1.0,82,0.00,,,0.52,Wunderground v.1.15,2013-09-05 00:04:00,
2013-09-04 20:09:00,75.4,69.5,29.96,ENE,73,0.0,1.0,82,0.00,,,0.52,Wunderground v.1.15,2013-09-05 00:09:00,
2013-09-04 20:14:00,75.4,69.5,29.96,ENE,73,0.0,0.0,82,0.07,,,0.53,Wunderground v.1.15,2013-09-05 00:14:00,
2013-09-04 20:19:00,75.4,69.9,29.97,ENE,73,0.0,1.0,83,0.07,,,0.53,Wunderground v.1.15,2013-09-05 00:19:00,
2013-09-04 20:24:00,75.4,69.9,29.97,ENE,73,0.0,0.0,83,0.06,,,0.54,Wunderground v.1.15,2013-09-05 00:24:00,
2013-09-04 20:29:00,75.3,69.8,29.97,ENE,73,0.0,0.0,83,0.06,,,0.54,Wunderground v.1.15,2013-09-05 00:29:00,
2013-09-04 20:34:00,75.3,69.8,29.98,ENE,73,0.0,0.0,83,0.05,,,0.55,Wunderground v.1.15,2013-09-05 00:34:00,
2013-09-04 20:39:00,75.3,70.1,29.98,ENE,73,0.0,0.0,84,0.05,,,0.55,Wunderground v.1.15,2013-09-05 00:39:00,
2013-09-04 20:44:00,75.3,70.1,29.98,ENE,73,0.0,0.0,84,0.05,,,0.55,Wunderground v.1.15,2013-09-05 00:44:00,
2013-09-04 20:49:00,75.4,70.2,29.98,ENE,73,0.0,0.0,84,0.04,,,0.55,Wunderground v.1.15,2013-09-05 00:49:00,
2013-09-04 20:54:00,75.6,70.4,29.98,ENE,73,0.0,0.0,84,0.00,,,0.55,Wunderground v.1.15,2013-09-05 00:54:00,
2013-09-04 20:59:00,75.6,70.4,29.98,ENE,72,0.0,0.0,84,0.00,,,0.55,Wunderground v.1.15,2013-09-05 00:59:00,
2013-09-04 21:04:00,75.6,70.8,29.97,ENE,73,0.0,0.0,85,0.00,,,0.55,Wunderground v.1.15,2013-09-05 01:04:00,
2013-09-04 21:09:00,75.8,71.0,29.97,ENE,73,0.0,0.0,85,0.00,,,0.55,Wunderground v.1.15,2013-09-05 01:09:00,
2013-09-04 21:14:00,75.8,71.0,29.97,ENE,73,0.0,0.0,85,0.00,,,0.55,Wunderground v.1.15,2013-09-05 01:14:00,
2013-09-04 21:19:00,75.8,71.0,29.97,ENE,73,0.0,0.0,85,0.00,,,0.55,Wunderground v.1.15,2013-09-05 01:19:00,
2013-09-04 21:24:00,75.8,71.0,29.97,ENE,73,0.0,0.0,85,0.00,,,0.55,Wunderground v.1.15,2013-09-05 01:24:00,
2013-09-04 21:29:00,76.0,71.5,29.97,ENE,72,0.0,0.0,86,0.00,,,0.55,Wunderground v.1.15,2013-09-05 01:29:00,
2013-09-04 21:34:00,75.8,71.3,29.96,ENE,73,0.0,0.0,86,0.00,,,0.55,Wunderground v.1.15,2013-09-05 01:34:00,
2013-09-04 21:40:00,75.6,71.1,29.96,ENE,73,0.0,0.0,86,0.00,,,0.55,Wunderground v.1.15,2013-09-05 01:40:00,
2013-09-04 21:45:00,75.4,70.9,29.96,ENE,73,0.0,0.0,86,0.00,,,0.55,Wunderground v.1.15,2013-09-05 01:45:00,
2013-09-04 21:50:00,75.4,70.9,29.96,ENE,73,0.0,0.0,86,0.00,,,0.55,Wunderground v.1.15,2013-09-05 01:50:00,
2013-09-04 21:55:00,75.3,70.8,29.96,ENE,73,0.0,0.0,86,0.00,,,0.55,Wunderground v.1.15,2013-09-05 01:55:00,
2013-09-04 22:00:00,75.3,70.8,29.96,ENE,73,0.0,0.0,86,0.00,,,0.55,Wunderground v.1.15,2013-09-05 02:00:00,
2013-09-04 22:05:00,75.3,70.8,29.96,ENE,73,0.0,0.0,86,0.00,,,0.55,Wunderground v.1.15,2013-09-05 02:05:00,
2013-09-04 22:10:00,75.1,70.6,29.96,SE,136,0.0,0.0,86,0.00,,,0.55,Wunderground v.1.15,2013-09-05 02:10:00,
2013-09-04 22:15:00,75.1,71.0,29.96,SE,136,0.0,0.0,87,0.00,,,0.55,Wunderground v.1.15,2013-09-05 02:15:00,
2013-09-04 22:20:00,74.9,70.8,29.95,SE,136,0.0,0.0,87,0.00,,,0.55,Wunderground v.1.15,2013-09-05 02:20:00,
2013-09-04 22:25:00,74.9,70.8,29.95,SE,137,0.0,0.0,87,0.00,,,0.55,Wunderground v.1.15,2013-09-05 02:25:00,
2013-09-04 22:30:00,74.9,70.8,29.95,SE,137,0.0,0.0,87,0.00,,,0.55,Wunderground v.1.15,2013-09-05 02:30:00,
2013-09-04 22:35:00,74.9,70.8,29.95,SE,137,0.0,0.0,87,0.00,,,0.55,Wunderground v.1.15,2013-09-05 02:35:00,
2013-09-04 22:40:00,74.9,71.1,29.95,SE,137,0.0,0.0,88,0.00,,,0.55,Wunderground v.1.15,2013-09-05 02:40:00,
2013-09-04 22:45:00,74.9,71.1,29.95,SE,137,0.0,0.0,88,0.00,,,0.55,Wunderground v.1.15,2013-09-05 02:45:00,
2013-09-04 22:50:00,74.9,71.1,29.94,SE,137,0.0,0.0,88,0.00,,,0.55,Wunderground v.1.15,2013-09-05 02:50:00,
2013-09-04 22:55:00,74.9,71.1,29.94,SE,137,0.0,1.0,88,0.00,,,0.55,Wunderground v.1.15,2013-09-05 02:55:00,
2013-09-04 23:00:00,74.9,71.1,29.94,SE,138,0.0,0.0,88,0.00,,,0.55,Wunderground v.1.15,2013-09-05 03:00:00,
2013-09-04 23:05:00,74.9,71.1,29.94,SE,126,0.0,5.0,88,0.00,,,0.55,Wunderground v.1.15,2013-09-05 03:05:00,
2013-09-04 23:10:00,74.9,71.1,29.94,SSE,155,2.0,2.0,88,0.00,,,0.55,Wunderground v.1.15,2013-09-05 03:10:00,
2013-09-04 23:15:00,74.9,71.1,29.94,SSE,155,0.0,2.0,88,0.00,,,0.55,Wunderground v.1.15,2013-09-05 03:15:00,
2013-09-04 23:20:00,74.9,71.1,29.94,SSE,155,0.0,0.0,88,0.00,,,0.55,Wunderground v.1.15,2013-09-05 03:20:00,
2013-09-04 23:25:00,75.1,71.3,29.94,ENE,76,0.0,0.0,88,0.00,,,0.55,Wunderground v.1.15,2013-09-05 03:25:00,
2013-09-04 23:30:00,75.1,71.3,29.94,ENE,76,0.0,0.0,88,0.00,,,0.56,Wunderground v.1.15,2013-09-05 03:30:00,
2013-09-04 23:35:00,75.1,71.3,29.94,ENE,76,0.0,0.0,88,0.00,,,0.56,Wunderground v.1.15,2013-09-05 03:35:00,
2013-09-04 23:40:00,75.1,71.3,29.94,ENE,76,0.0,0.0,88,0.00,,,0.56,Wunderground v.1.15,2013-09-05 03:40:00,
2013-09-04 23:45:00,75.1,71.6,29.94,ENE,76,0.0,0.0,89,0.00,,,0.56,Wunderground v.1.15,2013-09-05 03:45:00,
2013-09-04 23:50:00,75.3,71.8,29.95,ENE,76,0.0,0.0,89,0.00,,,0.56,Wunderground v.1.15,2013-09-05 03:50:00,
2013-09-04 23:55:00,75.3,71.8,29.95,ENE,76,0.0,0.0,89,0.00,,,0.56,Wunderground v.1.15,2013-09-05 03:55:00,